Greenville, MS

6:25 AM CDT on April 30, 2017 (GMT -0500)
Mid Delta Regional

Weather History for KGLH - March, 2014

Change the Weather History Date:

Tuesday, March 11, 2014

  Actual Average Record
Temperature  
Mean Temperature 61 °F 54 °F  
Max Temperature 73 °F 64 °F 85 °F (2006)
Min Temperature 49 °F 43 °F 22 °F (1998)
Degree Days  
Heating Degree Days 4 12  
Month to date heating degree days 209 145  
Since 1 July heating degree days 2816 2454  
Cooling Degree Days 0 0  
Month to date cooling degree days 0 0  
Year to date cooling degree days 0 5  
Growing Degree Days 11 (Base 50)    
Moisture  
Dew Point 58 °F    
Average Humidity 79    
Maximum Humidity 100    
Minimum Humidity 57    
Precipitation  
Precipitation 0.01 in 0.14 in 2.48 in (1973)
Month to date precipitation 0.96 1.46  
Year to date precipitation 5.26 11.45  
Sea Level Pressure  
Sea Level Pressure 29.73 in    
Wind  
Wind Speed 9 mph (South)    
Max Wind Speed 17 mph    
Max Gust Speed 22 mph    
Visibility 8 miles    
Events      
T = Trace of Precipitation, MM = Missing Value Source: NWS Daily Summary

Daily Weather History Graph

Daily Weather History Graph

Search for Another Location

Airport or City:

Trip Planner

Search our weather history database for the weather conditions in past years. The results will help you decide how hot, cold, wet, or windy it might be!

Date:

Astronomy

Mar. 11, 2014 Rise Set
Actual Time 7:19 AM CDT 7:08 PM CDT
Civil Twilight 6:54 AM CDT 7:33 PM CDT
Nautical Twilight 6:26 AM CDT 8:02 PM CDT
Astronomical Twilight 5:57 AM CDT 8:31 PM CDT
Moon 2:55 PM CDT (3/11) 4:02 AM CDT (3/11)
Length of Visible Light 12h 38m
Length of Day
11h 49m
Waxing Gibbous, 78% of the Moon is Illuminated
Mar 11
Waxing Gibbous
Mar 16
Full
Mar 23
Last Quarter
Mar 30
New
Apr 7
First Quarter

Hourly Weather History & Observations

Time (CDT) Temp. Dew Point Humidity Pressure Visibility Wind Dir Wind Speed Gust Speed Precip Events Conditions
12:53 AM 54.0 °F 51.1 °F 90% 29.91 in 8.0 mi SSW 6.9 mph - N/A   Clear
1:53 AM 52.0 °F 48.9 °F 89% 29.90 in 7.0 mi SW 3.5 mph - N/A   Clear
2:53 AM 51.1 °F 48.9 °F 92% 29.89 in 7.0 mi SSW 6.9 mph - N/A   Clear
3:53 AM 50.0 °F 48.0 °F 93% 29.86 in 6.0 mi SSW 4.6 mph - N/A   Clear
4:53 AM 50.0 °F 48.9 °F 96% 29.85 in 6.0 mi South 5.8 mph - N/A   Clear
5:53 AM 50.0 °F 48.0 °F 93% 29.85 in 4.0 mi SSE 3.5 mph - N/A   Clear
6:51 AM 50.0 °F 48.2 °F 94% 29.82 in 2.5 mi South 5.8 mph - N/A   Clear
6:53 AM 50.0 °F 48.9 °F 96% 29.85 in 2.5 mi South 5.8 mph - N/A   Clear
7:00 AM 50.0 °F 48.2 °F 94% 29.82 in 4.0 mi South 6.9 mph - N/A   Clear
7:53 AM 52.0 °F 51.1 °F 97% 29.83 in 3.0 mi SSE 3.5 mph - N/A   Clear
8:53 AM 55.9 °F 54.0 °F 93% 29.86 in 4.0 mi South 8.1 mph - N/A   Overcast
9:53 AM 59.0 °F 55.0 °F 87% 29.84 in 6.0 mi SSE 3.5 mph - N/A   Overcast
10:53 AM 66.0 °F 57.0 °F 73% 29.82 in 7.0 mi South 5.8 mph - N/A   Clear
11:53 AM 70.0 °F 55.9 °F 61% 29.80 in 9.0 mi South 9.2 mph - N/A   Clear
12:53 PM 72.0 °F 55.0 °F 55% 29.77 in 10.0 mi South 12.7 mph - N/A   Overcast
1:53 PM 71.1 °F 59.0 °F 66% 29.74 in 10.0 mi South 12.7 mph - N/A   Mostly Cloudy
2:53 PM 70.0 °F 61.0 °F 73% 29.71 in 10.0 mi SSW 12.7 mph - N/A   Overcast
3:19 PM 69.8 °F 60.8 °F 73% 29.68 in 10.0 mi SSE 12.7 mph - N/A   Mostly Cloudy
3:31 PM 69.8 °F 60.8 °F 73% 29.67 in 10.0 mi South 11.5 mph - N/A   Mostly Cloudy
3:53 PM 70.0 °F 60.1 °F 71% 29.69 in 9.0 mi SSE 10.4 mph - N/A   Overcast
4:20 PM 71.6 °F 60.8 °F 69% 29.65 in 10.0 mi South 15.0 mph - N/A   Mostly Cloudy
4:45 PM 69.8 °F 60.8 °F 73% 29.64 in 10.0 mi SSE 12.7 mph - N/A   Mostly Cloudy
4:53 PM 70.0 °F 61.0 °F 73% 29.67 in 10.0 mi South 13.8 mph - N/A   Mostly Cloudy
5:02 PM 69.8 °F 60.8 °F 73% 29.64 in 10.0 mi SSE 12.7 mph - N/A   Mostly Cloudy
5:46 PM 69.8 °F 60.8 °F 73% 29.62 in 9.0 mi SSE 12.7 mph - N/A   Scattered Clouds
5:53 PM 69.1 °F 61.0 °F 75% 29.65 in 9.0 mi SSE 11.5 mph - N/A   Partly Cloudy
6:42 PM 68.0 °F 62.6 °F 83% 29.64 in 8.0 mi South 10.4 mph - N/A   Mostly Cloudy
6:53 PM 66.9 °F 62.1 °F 84% 29.67 in 8.0 mi South 16.1 mph 19.6 mph N/A   Overcast
7:01 PM 66.2 °F 62.6 °F 88% 29.65 in 9.0 mi South 15.0 mph - N/A   Overcast
7:53 PM 64.9 °F 63.0 °F 93% 29.67 in 9.0 mi South 6.9 mph - 0.01 in   Overcast
8:53 PM 64.0 °F 62.1 °F 93% 29.66 in 8.0 mi SSE 6.9 mph - N/A   Mostly Cloudy
9:08 PM 64.4 °F 62.6 °F 94% 29.61 in 8.0 mi SSE 17.3 mph - N/A   Scattered Clouds
9:44 PM 64.4 °F 62.6 °F 94% 29.64 in 10.0 mi SSW 9.2 mph - N/A   Mostly Cloudy
9:50 PM 64.4 °F 62.6 °F 94% 29.65 in 10.0 mi SSW 9.2 mph - N/A   Mostly Cloudy
9:53 PM 64.0 °F 62.1 °F 93% 29.67 in 10.0 mi SSW 9.2 mph - N/A   Mostly Cloudy
10:13 PM 64.4 °F 62.6 °F 94% 29.65 in 10.0 mi SSW 12.7 mph 18.4 mph N/A   Overcast
10:53 PM 64.0 °F 61.0 °F 90% 29.68 in 10.0 mi SW 12.7 mph - N/A   Mostly Cloudy
11:02 PM 64.4 °F 60.8 °F 88% 29.66 in 10.0 mi SW 10.4 mph - N/A   Mostly Cloudy
11:35 PM 62.6 °F 60.8 °F 94% 29.66 in 10.0 mi SSW 10.4 mph - N/A   Scattered Clouds
11:53 PM 62.1 °F 60.1 °F 93% 29.68 in 10.0 mi SSW 11.5 mph - N/A   Clear